Weather History for Cincinnati, OH

Change the Weather History Date:

Friday, March 15, 2013

  Actual Average Record
Temperature  
Mean Temperature 41 °F -  
Max Temperature 54 °F 54 °F 80 °F (1977)
Min Temperature 28 °F 33 °F 9 °F (1993)
Degree Days  
Heating Degree Days 24    
Moisture  
Dew Point 32 °F    
Average Humidity 73    
Maximum Humidity 96    
Minimum Humidity 51    
Precipitation  
Precipitation 0.00 in - - ()
Sea Level Pressure  
Sea Level Pressure 30.01 in    
Wind  
Wind Speed 4 mph (SW)    
Max Wind Speed 9 mph    
Max Gust Speed -    
Visibility 10 miles    
Events      
Averages and records for this station are not official NWS values.
T = Trace of Precipitation, MM = Missing Value Source: NWS Daily Summary

Daily Weather History Graph

Daily Weather History Graph

Search for Another Location

Airport:

Trip Planner

Search our weather history database for the weather conditions in past years. The results will help you decide how hot, cold, wet, or windy it might be!

Date:

Astronomy

Mar. 15, 2013 Rise Set
Actual Time 7:48 AM EDT 7:44 PM EDT
Civil Twilight 7:22 AM EDT 8:11 PM EDT
Nautical Twilight 6:50 AM EDT 8:42 PM EDT
Astronomical Twilight 6:19 AM EDT 9:14 PM EDT
Moon 9:40 AM EDT (3/15) 11:55 PM EDT (3/15)
Length of Visible Light 12h 49m
Length of Day
11h 56m
Waxing Crescent, 15% of the Moon is Illuminated
Mar 15
Waxing Crescent
Mar 19
First Quarter
Mar 27
Full
Apr 3
Last Quarter
Apr 10
New

Hourly Weather History & Observations

Time (EDT) Temp. Windchill Dew Point Humidity Pressure Visibility Wind Dir Wind Speed Gust Speed Precip Events Conditions
12:53 AM 36.0 °F 29.6 °F 27.0 °F 70% 30.21 in 10.0 mi WSW 8.1 mph - N/A   Clear
1:53 AM 33.1 °F 28.7 °F 27.0 °F 78% 30.19 in 10.0 mi SW 4.6 mph - N/A   Partly Cloudy
2:53 AM 33.1 °F 28.7 °F 28.0 °F 82% 30.18 in 10.0 mi SSW 4.6 mph - N/A   Mostly Cloudy
3:53 AM 33.1 °F - 28.0 °F 82% 30.15 in 10.0 mi Calm Calm - N/A   Clear
4:53 AM 30.0 °F 26.5 °F 27.0 °F 88% 30.11 in 10.0 mi SW 3.5 mph - N/A   Clear
5:53 AM 28.9 °F - 26.1 °F 89% 30.11 in 10.0 mi Calm Calm - N/A   Clear
6:53 AM 28.9 °F - 27.0 °F 92% 30.09 in 8.0 mi Calm Calm - N/A   Clear
7:53 AM 28.0 °F - 27.0 °F 96% 30.08 in 10.0 mi Calm Calm - N/A   Clear
8:53 AM 30.0 °F 26.5 °F 28.0 °F 92% 30.07 in 10.0 mi WSW 3.5 mph - N/A   Clear
9:53 AM 35.1 °F 32.2 °F 30.9 °F 85% 30.06 in 10.0 mi South 3.5 mph - N/A   Clear
10:53 AM 37.9 °F 33.5 °F 30.9 °F 76% 30.02 in 10.0 mi South 5.8 mph - N/A   Clear
11:53 AM 43.0 °F 40.3 °F 32.0 °F 65% 30.01 in 10.0 mi Variable 4.6 mph - N/A   Clear
12:53 PM 46.0 °F 43.1 °F 33.1 °F 61% 29.99 in 10.0 mi WSW 5.8 mph - N/A   Clear
1:53 PM 48.0 °F - 33.1 °F 56% 29.99 in 10.0 mi West 6.9 mph - N/A   Clear
2:53 PM 50.0 °F - 34.0 °F 54% 29.95 in 10.0 mi Variable 6.9 mph - N/A   Clear
3:53 PM 51.1 °F - 35.1 °F 54% 29.93 in 10.0 mi SW 9.2 mph - N/A   Clear
4:53 PM 53.1 °F - 36.0 °F 52% 29.91 in 10.0 mi West 8.1 mph - N/A   Clear
5:53 PM 54.0 °F - 36.0 °F 51% 29.90 in 10.0 mi West 4.6 mph - N/A   Partly Cloudy
6:53 PM 52.0 °F - 37.0 °F 57% 29.91 in 10.0 mi WSW 6.9 mph - N/A   Overcast
7:53 PM 48.9 °F - 39.0 °F 69% 29.89 in 10.0 mi ESE 3.5 mph - N/A   Overcast
8:53 PM 50.0 °F - 37.9 °F 63% 29.88 in 10.0 mi Calm Calm - N/A   Partly Cloudy
9:53 PM 46.0 °F - 39.0 °F 76% 29.88 in 10.0 mi Calm Calm - N/A   Overcast
10:53 PM 46.9 °F - 39.0 °F 74% 29.85 in 10.0 mi Calm Calm - N/A   Overcast
11:53 PM 44.1 °F - 39.0 °F 82% 29.81 in 10.0 mi Calm Calm - N/A   Overcast